Wind_Speed
43 46 45 46 48 49 49 51 51 52 52 51 51 50 50 49 49 50 50 49 47 46 46 46 47 50 52 51 49 45 43 43 46 49 50 45 38 38 40 37 36 35 32 30 28 26 26 25 24 24 23 22 21 19 18 17 16 15 14 14 15 13 12 12 10 9 7 5 4 5 8 8 7 8 8 9 8 7 8 6 4 4 4 4 4 4 5 4
40 44 43 42 45 47 47 49 51 51 51 51 51 51 50 49 48 48 48 48 47 44 44 44 43 46 50 54 54 48 45 44 43 49 50 43 40 40 40 38 37 36 35 33 30 28 27 27 26 25 24 23 22 22 20 19 18 17 16 16 16 13 10 11 12 10 7 5 5 7 9 9 9 9 10 10 9 8 8 7 4 3 3 3 3 3 4 4
38 42 42 39 41 44 45 46 49 50 50 51 50 50 50 49 48 47 47 47 46 44 42 42 40 42 46 52 57 53 48 46 46 49 47 41 41 41 40 38 37 37 37 35 33 31 29 28 28 27 26 25 23 23 22 21 20 19 19 19 17 13 10 12 13 9 5 5 6 9 10 10 10 10 11 10 10 10 9 8 4 2 3 3 3 3 3 3
39 40 40 39 40 42 42 42 45 48 49 50 49 48 50 49 48 46 45 45 45 43 42 41 40 40 41 45 53 55 50 49 52 49 42 40 41 40 39 39 37 37 37 36 35 33 31 30 29 28 28 26 25 24 24 23 22 21 22 21 17 13 11 14 14 9 7 7 8 10 11 11 11 11 12 12 12 11 10 9 6 5 5 4 4 4 3 3
39 39 39 38 39 40 41 40 42 46 48 49 48 47 48 49 48 45 43 44 44 43 41 39 39 38 38 39 45 53 50 49 54 48 38 38 39 39 39 38 38 37 37 37 35 35 33 31 31 30 29 28 26 26 25 24 23 23 24 22 19 15 14 16 16 12 9 10 11 11 12 12 12 12 12 12 13 12 10 10 9 9 7 5 5 4 4 3
39 40 39 38 40 41 40 39 40 43 45 47 48 47 46 46 48 45 42 44 43 41 40 38 37 36 36 37 39 47 52 51 51 45 39 37 36 37 39 38 38 37 37 38 36 36 34 32 31 31 31 29 27 27 26 24 24 25 25 23 21 19 17 17 19 17 13 13 14 13 13 13 13 13 13 13 13 14 13 12 12 11 9 7 6 5 5 4
38 40 39 38 40 41 39 39 40 41 41 43 46 47 45 42 46 47 43 42 42 39 39 38 36 36 36 36 38 42 51 56 53 45 40 37 34 34 37 38 39 39 39 39 37 36 35 33 32 31 31 31 30 28 26 25 24 26 26 24 22 20 20 19 20 21 18 16 16 16 16 16 16 16 16 16 15 16 17 15 14 14 12 11 9 6 6 6
38 39 39 38 40 39 39 40 40 38 38 40 44 45 44 41 43 48 45 41 41 39 39 39 37 37 36 36 39 41 49 55 56 53 43 35 33 33 36 39 41 41 40 39 37 35 35 34 32 30 31 31 31 29 27 26 26 27 28 26 22 21 21 20 21 23 22 20 18 19 19 18 18 19 20 19 16 17 18 17 18 17 15 13 11 9 9 9
37 37 38 38 38 39 38 39 38 37 36 37 41 43 44 42 42 46 46 41 39 39 40 38 37 38 37 36 38 43 49 47 48 54 50 39 32 29 35 41 41 41 40 39 37 36 36 35 33 31 30 30 31 30 29 28 27 28 29 27 25 23 22 20 21 23 24 23 22 22 21 19 18 21 23 20 17 18 18 18 19 19 18 15 14 13 12 12
34 36 37 37 38 39 38 38 37 36 35 35 39 41 42 42 42 44 44 42 38 38 40 37 36 39 40 39 39 45 48 39 37 45 49 48 40 29 28 35 40 41 40 39 38 38 38 36 32 29 29 30 30 30 30 29 28 27 27 28 28 26 25 23 21 21 22 24 25 25 25 23 20 23 25 21 17 18 19 19 19 20 20 18 17 16 16 15
32 35 37 37 38 39 37 36 37 35 34 35 38 40 40 40 41 42 43 43 40 38 40 38 36 38 42 43 44 49 46 35 34 37 40 48 50 40 30 29 37 43 41 40 40 39 38 35 30 29 29 30 31 30 30 31 30 28 28 29 29 27 27 26 25 23 22 24 26 27 27 27 26 28 28 22 18 18 19 20 20 20 20 21 21 20 20 18
31 33 36 36 36 39 38 36 37 36 34 36 37 39 40 38 39 41 42 43 41 40 40 39 37 33 38 45 48 49 42 33 33 34 35 41 46 46 41 34 35 43 44 41 41 39 36 34 31 30 29 29 31 29 30 32 31 29 29 30 29 28 29 29 28 27 25 26 27 27 28 31 32 33 30 24 23 22 20 21 21 21 20 20 21 22 22 21
31 32 34 35 34 37 38 37 37 36 35 36 36 38 39 38 38 40 42 42 42 41 40 41 39 33 36 44 45 43 37 32 33 33 34 37 39 42 44 40 39 44 45 42 41 39 36 33 33 33 30 29 29 29 29 30 31 32 31 32 31 30 33 31 29 29 28 26 27 27 29 34 36 34 30 26 25 25 24 24 23 22 21 20 21 21 21 21
30 30 32 33 34 35 37 38 37 35 35 35 35 37 38 37 37 38 39 41 42 41 40 42 42 38 38 41 40 37 34 32 34 34 34 37 40 42 42 42 43 43 43 42 39 37 36 35 34 34 33 31 29 29 29 27 28 31 31 34 35 35 37 34 29 30 30 28 28 28 31 36 37 33 30 27 25 25 26 27 26 24 23 23 23 22 21 21
28 29 30 32 33 33 35 37 36 34 35 36 35 36 37 36 35 35 36 39 41 40 40 43 44 41 42 44 41 37 35 36 38 36 35 37 40 44 45 44 42 38 37 37 35 33 35 36 36 36 35 34 31 30 30 28 27 28 31 36 38 39 39 36 32 31 31 29 29 29 30 36 38 35 32 29 28 27 27 28 27 25 25 25 26 25 24 23
25 27 28 31 33 33 34 36 35 34 35 36 35 35 38 37 34 35 37 39 39 37 39 44 44 41 43 45 41 37 40 43 42 38 34 36 39 44 46 46 43 38 36 35 31 30 32 36 39 39 37 35 33 32 30 29 31 31 34 38 39 39 39 38 36 34 32 29 30 31 30 34 37 34 31 30 30 29 29 30 28 26 26 26 26 27 26 25
24 26 27 29 31 32 33 35 36 35 35 36 34 35 38 37 35 37 39 40 39 37 38 43 43 40 42 43 40 39 42 44 43 37 32 33 37 41 43 47 48 45 44 42 37 34 32 34 39 41 41 39 36 34 30 31 37 38 37 38 37 36 36 38 38 37 35 33 32 34 34 36 37 35 31 30 30 30 30 31 30 29 28 28 28 28 27 27
23 25 27 28 29 30 31 33 35 35 35 35 35 35 37 38 37 38 40 41 40 39 39 42 43 41 39 40 41 40 40 43 42 37 32 31 34 38 40 42 43 44 47 49 49 48 40 35 37 40 42 43 40 39 39 42 44 41 40 41 40 38 37 37 37 36 36 36 35 35 37 37 39 39 36 33 31 31 31 32 32 31 29 29 30 32 31 31
21 23 25 27 28 29 29 31 33 34 34 35 36 36 37 38 37 37 40 42 42 42 41 43 47 45 42 42 40 37 36 39 40 38 35 33 33 36 37 37 38 39 43 48 52 57 53 42 38 40 43 47 48 48 50 50 47 44 44 43 42 41 40 37 36 35 34 35 39 40 40 39 40 42 40 37 34 31 31 32 33 33 32 31 31 34 35 35
20 21 23 25 26 27 28 29 31 32 32 34 36 36 37 39 38 38 41 44 46 46 44 46 50 49 48 46 41 37 36 37 40 40 38 35 33 35 37 36 38 40 43 46 49 55 57 50 44 43 44 47 50 51 51 50 47 46 43 42 43 41 42 41 38 37 34 33 39 42 42 42 42 45 44 38 35 32 31 32 33 34 34 35 35 35 37 38
18 19 21 23 25 26 27 27 28 31 32 33 35 36 38 40 42 41 41 44 45 45 45 46 47 46 48 49 42 38 37 39 40 38 37 36 33 36 40 38 37 42 45 45 46 48 52 54 53 47 42 43 47 49 49 49 48 46 42 41 43 43 43 42 39 38 36 35 40 41 41 42 40 43 45 41 38 36 35 34 34 34 34 36 37 37 38 39
16 18 19 21 23 25 26 26 27 31 30 31 34 36 37 39 41 39 38 41 44 44 46 47 46 44 46 49 45 37 34 38 41 38 35 35 36 38 42 41 38 39 42 43 45 44 46 55 62 57 43 37 41 46 48 49 48 44 43 41 40 41 41 39 39 38 34 36 41 39 40 44 42 42 45 44 42 39 36 35 35 34 35 37 37 37 39 39
16 17 18 20 22 24 26 26 28 30 29 30 33 33 34 37 38 36 34 36 40 43 45 48 49 47 46 48 49 41 32 34 39 40 37 37 40 40 42 44 41 37 39 45 48 47 47 50 58 60 49 39 37 38 42 47 49 47 46 43 41 40 34 33 36 33 32 36 40 38 40 44 41 39 44 46 43 39 36 34 35 36 36 38 38 38 39 40
17 18 19 20 21 23 26 26 28 30 29 29 30 30 32 35 36 36 33 31 36 42 45 46 47 51 50 46 48 48 40 34 33 34 36 38 41 41 43 46 45 41 40 44 48 50 50 44 43 48 50 50 45 39 37 39 45 50 50 47 45 40 34 33 32 28 30 34 37 37 37 43 44 39 41 45 43 41 39 37 37 40 40 39 39 39 39 40
18 19 20 21 22 23 25 25 27 28 29 30 29 28 29 32 34 33 31 29 31 37 42 45 45 49 51 46 44 47 48 44 36 29 31 37 40 41 44 45 46 48 44 41 43 48 50 42 37 37 40 49 52 50 46 40 41 46 49 51 49 42 37 35 32 29 29 29 35 34 26 33 44 42 43 45 45 47 44 41 41 41 41 41 40 40 39 39
18 19 21 22 22 23 25 25 26 27 29 30 29 27 27 30 32 30 28 25 26 34 38 42 45 47 52 52 47 42 44 51 48 37 31 33 37 39 42 45 48 50 48 43 40 43 46 43 43 41 36 41 46 49 51 46 43 44 45 48 46 42 40 39 36 32 30 30 33 31 23 26 34 37 42 43 44 50 48 44 45 43 43 43 43 42 41 40
20 21 22 22 22 24 24 24 25 27 30 30 28 27 27 29 29 29 25 15 18 33 37 38 43 46 51 55 53 44 36 42 51 49 39 33 37 41 42 46 49 49 50 45 40 43 44 43 46 45 41 42 46 50 51 48 48 48 46 43 42 42 42 42 40 35 37 38 32 29 29 29 33 37 41 40 39 45 48 47 46 45 44 45 44 44 42 41
21 23 24 23 24 25 23 22 24 27 28 26 25 26 27 28 26 27 21 6 7 24 34 39 41 41 47 52 54 52 40 34 42 51 48 35 34 42 44 46 48 48 50 49 48 48 45 45 47 46 45 46 50 52 49 45 47 48 44 41 39 39 41 43 41 40 42 36 27 31 30 23 33 43 41 41 42 44 50 50 48 47 46 45 45 44 43 41
22 24 25 25 25 25 23 23 24 24 24 23 23 24 27 28 26 23 15 5 9 18 23 34 41 40 44 47 48 53 51 41 33 38 49 45 37 37 40 44 45 46 49 53 55 52 45 43 44 45 48 49 49 47 44 43 45 46 42 40 39 36 39 40 38 42 39 28 26 36 35 21 28 42 40 39 44 48 53 53 50 49 47 47 48 47 46 43
24 25 25 26 27 27 26 27 25 23 24 24 23 25 26 27 27 20 9 9 17 17 16 24 38 44 44 44 45 48 53 53 41 33 41 48 46 41 38 38 41 46 50 50 53 54 51 46 42 42 46 48 47 44 43 43 44 44 40 38 35 30 33 33 36 42 29 17 28 43 46 31 24 39 44 43 48 49 50 51 48 47 45 44 45 44 43 42
25 26 26 28 30 29 29 28 26 25 25 25 25 26 26 27 28 16 5 15 20 17 19 21 29 41 45 45 45 45 46 51 53 45 37 37 42 48 45 38 39 45 47 47 50 53 54 50 44 41 41 44 46 45 45 45 45 44 40 38 31 21 24 25 28 33 16 8 31 50 51 37 26 37 34 29 40 43 43 44 41 41 41 40 41 40 40 38
27 28 28 30 31 30 30 27 25 25 24 25 25 28 28 24 23 16 9 17 16 11 20 24 24 35 43 46 47 46 44 46 53 56 48 38 37 48 53 48 44 41 40 46 50 51 57 60 53 45 40 42 46 46 44 44 46 46 42 40 27 12 12 13 11 15 10 14 36 44 39 34 40 51 39 25 26 25 29 33 32 36 39 39 39 38 38 35
28 29 29 32 32 32 31 26 25 24 24 26 24 27 30 18 14 23 24 21 13 7 16 25 25 29 36 42 46 46 43 44 51 56 56 49 40 42 49 52 51 41 36 44 51 48 48 56 58 51 44 42 45 46 44 42 47 48 45 43 30 10 4 7 7 7 8 21 39 38 28 25 36 53 54 48 37 25 27 28 26 30 32 35 38 33 31 30
27 31 32 34 34 33 32 28 27 26 25 25 23 24 27 14 9 27 35 28 16 7 12 23 26 27 32 37 42 45 41 39 47 53 55 53 47 44 45 49 51 47 40 38 45 46 35 35 49 54 51 50 48 48 46 45 49 53 53 49 40 28 15 8 9 8 8 15 26 29 20 9 21 44 51 51 50 45 43 41 37 32 24 26 30 28 27 25
26 33 34 35 35 34 34 30 28 28 26 24 24 26 27 21 18 26 34 35 28 16 12 18 24 27 31 34 37 42 42 38 41 48 52 52 52 51 49 47 47 49 46 33 32 44 40 36 47 53 55 58 55 51 49 45 42 45 51 48 43 44 34 17 13 17 16 10 11 22 20 12 24 45 45 40 44 46 45 45 44 37 29 28 29 29 30 26
25 33 35 36 37 36 35 33 30 30 29 26 26 28 29 29 30 30 30 35 38 33 23 16 18 23 30 33 33 37 41 39 37 41 47 50 52 55 53 48 45 46 50 41 30 32 33 38 49 48 48 56 58 54 51 46 40 39 46 50 49 51 45 26 15 16 15 9 11 21 26 27 31 40 44 41 38 37 39 40 41 41 40 40 39 38 38 35
22 31 35 36 36 36 35 34 33 31 30 28 28 30 30 31 33 32 30 30 33 37 33 24 17 16 22 28 31 34 37 38 37 39 42 43 45 52 54 51 47 46 48 47 40 33 27 32 46 46 43 50 54 52 52 51 49 43 44 52 50 44 43 33 15 7 8 7 12 23 30 33 30 32 44 44 38 38 40 36 37 41 43 43 42 40 41 41
21 29 35 35 34 35 34 33 34 33 30 29 31 32 31 30 31 30 31 30 28 29 32 32 26 20 18 20 25 31 34 36 38 38 40 38 36 44 53 52 51 51 49 46 45 43 32 24 31 40 43 45 46 47 48 50 53 48 41 47 45 30 29 32 17 6 8 5 6 21 31 33 35 39 43 42 42 45 42 37 36 38 39 40 39 39 40 39
22 30 35 36 34 33 34 33 33 33 31 31 34 35 33 32 31 30 30 32 30 26 26 32 34 30 26 23 22 26 31 36 40 38 36 37 35 40 48 50 51 53 52 50 47 47 39 23 20 30 36 37 41 47 50 50 51 47 37 40 46 36 30 34 27 17 13 7 6 14 17 21 37 50 49 47 49 46 38 36 37 36 36 35 32 32 33 30
26 32 35 37 36 34 34 33 32 33 34 36 37 36 34 33 31 30 30 31 31 29 28 30 32 32 33 33 28 25 26 32 39 39 36 36 37 40 44 45 48 51 53 54 51 48 42 29 22 24 26 31 40 47 52 53 51 48 42 40 45 44 37 32 33 34 24 10 5 8 9 16 34 48 51 51 52 47 40 36 34 31 28 26 25 27 25 21
28 32 34 36 37 36 35 35 36 37 38 39 38 36 35 33 31 31 30 31 31 31 32 31 30 32 35 35 32 29 28 28 32 35 37 38 37 39 42 43 45 48 50 52 52 50 44 35 30 29 27 33 41 44 48 51 53 53 53 52 50 49 40 22 18 32 35 21 11 9 10 19 32 39 45 48 48 48 47 44 40 34 29 28 28 26 24 24
29 33 33 35 37 36 36 37 38 39 40 41 39 37 36 34 32 32 30 31 31 32 34 34 32 33 35 36 32 28 27 29 31 30 32 37 40 41 43 44 44 46 49 52 54 56 52 42 37 37 36 37 38 40 41 43 49 54 56 58 55 49 43 27 12 17 27 27 24 18 13 20 33 38 41 46 46 44 44 43 42 38 35 34 31 26 27 28
29 30 28 31 35 36 37 37 38 40 41 41 39 37 36 35 33 31 29 30 32 33 35 36 36 36 38 38 35 30 26 28 32 33 31 33 39 41 41 41 42 42 45 50 52 54 50 43 38 36 39 42 41 41 42 41 46 53 56 58 56 50 46 41 32 26 24 26 28 17 9 20 39 44 43 46 45 39 32 29 29 29 29 29 26 25 26 26
28 27 24 28 33 36 39 40 40 41 40 39 39 38 37 36 34 32 30 29 31 33 35 37 38 37 38 39 37 34 30 27 26 28 30 32 35 38 41 41 40 41 43 46 48 48 45 42 38 27 20 25 29 30 34 39 45 52 55 55 55 53 49 46 46 38 24 27 34 19 8 24 44 49 49 49 44 37 30 25 23 22 23 24 23 22 23 24
25 25 23 28 33 37 40 40 38 38 39 38 39 39 38 37 36 34 32 31 31 32 34 36 37 37 38 38 38 35 33 31 27 23 25 28 30 32 37 40 40 41 43 44 46 49 48 45 44 32 14 11 15 19 30 43 46 48 51 51 52 54 53 49 49 39 20 22 35 28 18 31 46 48 49 50 47 43 38 33 28 25 23 23 22 23 24 25
25 24 22 28 34 37 38 39 38 38 38 39 39 38 37 38 38 35 33 34 33 33 34 34 35 36 36 37 39 38 37 36 33 29 31 34 32 31 32 33 37 38 40 42 46 50 49 47 49 49 40 34 34 34 38 43 43 42 45 48 50 53 57 55 49 41 31 27 34 35 29 31 41 48 51 49 45 45 45 42 37 33 29 26 24 24 25 26
25 25 23 26 32 37 39 40 41 42 40 38 39 39 39 39 38 35 35 36 35 35 35 35 35 36 37 38 38 38 38 37 36 37 39 40 39 35 30 30 33 36 38 43 47 49 50 48 50 54 55 55 54 48 39 32 32 36 42 48 50 50 54 56 51 49 44 32 29 36 36 34 43 55 56 50 45 45 46 44 40 37 35 33 31 29 29 30
22 24 25 26 29 34 40 41 41 41 40 39 39 39 38 39 39 38 38 37 36 36 36 37 39 40 40 40 38 37 37 34 35 40 40 39 41 41 37 34 32 32 35 40 46 49 50 49 51 54 56 58 59 58 51 40 34 35 37 42 49 51 53 56 57 58 55 42 36 41 43 44 51 59 60 55 50 48 46 44 42 41 40 36 33 31 31 33
20 22 25 28 29 31 34 36 38 39 39 39 40 40 39 39 40 40 39 37 37 38 38 39 41 41 41 42 40 39 38 33 34 38 38 37 39 41 43 41 37 36 35 36 42 48 49 50 52 52 54 58 60 60 61 56 50 46 42 40 43 49 54 58 58 60 60 56 53 51 48 48 52 57 59 58 54 52 50 47 45 45 42 36 33 32 31 34
19 18 20 26 30 31 30 29 31 36 39 38 40 43 42 41 42 40 38 38 39 39 39 41 42 41 41 41 40 42 42 39 40 40 36 35 36 37 40 43 42 42 40 37 37 42 43 46 52 49 46 51 57 58 58 58 56 55 54 50 47 47 50 55 58 59 59 58 58 55 51 49 51 55 57 57 54 52 50 48 46 42 38 35 34 35 33 34
20 18 18 20 22 26 31 30 27 30 36 40 43 43 41 41 41 39 37 39 41 41 41 41 41 39 39 41 42 43 42 40 42 42 39 38 38 35 36 37 36 35 36 36 35 34 32 35 44 45 37 40 49 52 54 58 57 56 58 56 53 50 49 51 56 59 59 58 57 56 55 55 54 54 55 55 54 51 49 49 47 43 41 41 41 39 37 36
20 20 19 18 16 17 24 30 30 29 32 38 43 42 39 38 38 36 36 38 40 40 40 39 39 38 39 42 43 40 37 36 39 40 40 40 39 38 37 37 36 34 34 36 37 38 36 30 32 35 31 36 47 47 49 51 42 42 55 59 54 55 55 53 56 59 60 59 58 57 59 59 55 52 53 54 54 54 53 50 48 49 49 48 46 43 40 38
Wind_Direction
235 233 232 232 231 228 228 228 229 230 230 230 230 230 230 230 232 233 233 233 232 231 230 231 231 230 229 231 231 233 236 235 233 233 231 227 224 225 225 226 230 234 234 235 234 232 234 236 237 238 238 237 233 229 234 238 237 236 233 234 233 228 214 204 217 233 239 244 247 241 227 229 248 265 278 286 287 287 287 282 275 263 247 230 234 242 240 255
235 233 231 232 231 229 228 227 227 228 229 230 230 230 230 230 230 232 233 233 233 231 230 230 231 231 230 231 232 233 236 237 236 234 230 226 224 224 225 224 225 230 234 235 235 233 233 236 237 238 239 238 236 232 232 235 237 239 238 236 234 229 217 207 221 242 249 243 237 224 218 224 236 254 269 278 279 274 280 288 294 289 271 259 254 249 238 241
235 234 230 232 232 229 229 228 226 227 228 228 229 230 230 230 229 230 231 233 233 231 230 227 229 232 232 232 233 234 235 237 238 234 228 224 226 225 225 224 224 227 230 234 235 234 233 235 237 238 238 239 239 236 233 233 235 239 241 239 235 231 222 213 217 234 241 228 224 217 216 227 236 248 261 268 270 268 272 279 283 283 265 260 266 264 255 255
234 233 228 231 234 230 229 228 226 225 226 227 228 228 229 229 229 229 229 232 233 231 229 227 225 229 232 232 233 235 236 237 237 233 225 223 225 225 225 224 223 225 228 231 234 235 233 234 236 237 238 239 240 240 237 235 235 239 242 241 240 235 225 218 216 220 220 215 220 223 223 228 236 244 254 260 263 267 273 274 263 253 259 268 280 286 286 282
232 231 226 228 233 231 229 228 227 226 225 226 226 227 227 228 228 228 228 229 232 232 229 227 224 226 231 231 231 234 235 237 238 233 224 222 223 223 225 224 223 224 226 229 232 234 233 232 234 235 237 238 239 241 241 239 238 239 240 242 243 239 228 222 220 217 214 219 225 229 230 231 236 243 251 260 265 268 270 265 256 257 267 276 278 287 295 301
230 229 225 226 228 228 229 228 228 226 225 225 225 226 226 226 226 226 228 228 229 231 229 225 223 225 230 229 229 230 230 232 237 234 224 223 224 223 223 224 224 223 225 227 229 232 232 231 231 233 235 236 238 241 242 242 242 242 241 241 242 240 233 226 224 221 214 216 225 232 235 236 240 246 251 259 267 265 261 257 254 257 259 258 263 280 293 295
226 226 225 225 226 225 226 228 229 226 225 225 224 225 224 225 224 223 226 226 228 230 228 224 221 222 226 226 226 227 229 230 233 234 226 223 226 224 223 225 225 223 223 224 226 229 230 231 230 232 234 236 237 239 241 243 245 244 244 242 242 240 237 232 229 229 224 220 225 231 238 241 243 248 253 259 265 262 259 257 255 255 254 253 259 271 280 286
224 225 226 226 225 222 223 226 227 225 225 226 224 224 223 223 224 222 224 224 227 231 228 224 222 222 222 222 224 227 230 230 230 233 230 225 225 224 222 224 225 224 223 222 224 226 229 230 230 231 234 236 237 239 240 242 244 245 244 244 245 242 239 237 236 235 233 231 230 232 238 245 248 251 255 258 261 260 258 258 258 258 258 258 262 265 270 279
224 224 226 227 225 221 221 224 224 223 224 227 225 223 223 224 224 223 223 221 223 230 230 224 224 226 223 223 223 228 233 232 231 233 232 228 224 222 224 225 226 226 225 223 222 223 225 228 229 231 234 236 238 238 238 239 241 244 245 246 245 242 238 237 238 238 240 240 238 237 237 241 249 253 253 253 252 254 255 256 259 261 262 263 264 264 267 273
224 223 222 224 224 222 222 222 222 220 222 227 227 223 222 223 225 222 220 219 219 228 231 222 223 228 227 227 226 231 235 232 230 231 233 232 226 217 219 226 227 228 229 226 223 222 223 225 226 229 232 233 236 235 235 235 237 240 244 245 244 241 238 234 234 236 241 245 245 244 242 241 246 248 248 248 246 250 253 255 255 257 259 261 261 263 265 268
223 222 219 220 222 223 223 221 219 218 219 225 227 222 219 221 225 221 217 217 216 224 229 219 218 225 228 229 230 234 236 230 226 226 227 231 228 222 221 226 228 226 227 228 225 224 222 222 221 223 228 229 231 233 233 234 235 236 238 242 244 243 240 235 234 234 237 242 244 248 249 246 244 243 242 244 247 251 255 257 257 255 256 258 260 262 264 266
221 221 220 218 219 221 222 220 216 216 216 222 225 221 218 219 224 222 217 215 216 221 226 219 215 223 230 234 236 238 236 229 227 224 220 224 225 227 229 230 230 224 222 224 223 224 222 220 219 219 223 227 229 230 233 235 234 233 234 238 241 241 240 237 237 237 236 239 243 248 252 247 242 241 243 245 251 254 257 259 260 260 258 259 262 264 266 267
220 220 220 219 217 217 220 219 216 216 216 220 223 221 218 217 221 223 218 214 218 223 225 220 215 219 228 235 239 238 233 227 227 224 218 217 218 223 227 229 230 222 218 219 217 220 222 220 220 219 220 224 225 226 230 233 233 232 231 236 238 239 239 237 239 242 240 241 243 246 251 248 241 241 244 247 252 256 256 255 257 260 261 261 260 261 264 265
220 219 220 219 217 214 215 218 218 218 218 218 220 220 218 216 219 222 218 214 218 223 226 223 216 217 225 232 235 232 229 226 226 223 214 213 214 215 217 222 227 218 211 214 212 214 218 218 220 220 219 221 223 225 228 231 233 232 232 235 237 239 241 238 236 241 241 241 244 246 252 252 247 244 245 246 250 255 255 253 254 257 259 260 259 258 260 260
221 218 219 219 217 215 213 214 216 217 217 216 216 219 216 213 217 217 212 214 219 222 225 224 218 218 226 232 233 229 225 224 224 222 213 208 210 211 211 213 219 215 209 209 205 206 214 215 217 219 219 220 222 225 229 230 232 231 233 235 235 237 242 240 234 234 237 239 242 245 251 254 252 249 249 249 249 253 254 253 254 257 258 260 262 262 261 260
222 218 217 217 216 216 213 211 212 214 215 214 212 215 212 210 214 213 210 213 217 220 224 225 220 221 228 231 234 230 223 224 225 223 214 207 208 212 213 213 215 215 215 214 207 205 213 216 217 219 220 219 219 223 227 231 231 229 231 235 235 235 239 240 236 232 234 237 239 242 247 253 255 253 253 253 252 254 254 253 254 256 257 259 263 264 263 263
221 219 216 215 215 216 215 211 208 209 212 213 212 212 210 208 210 212 213 213 214 216 220 223 220 222 229 230 232 231 226 226 227 225 218 209 208 212 215 217 218 220 221 222 222 218 216 218 219 218 219 219 218 218 222 228 228 225 227 232 236 236 236 238 238 234 233 234 238 243 247 251 255 256 254 255 255 256 255 253 254 257 257 256 258 260 261 262
215 219 216 214 214 214 216 213 208 206 208 212 213 211 208 208 209 211 212 211 211 213 215 218 215 217 226 227 227 231 230 228 228 228 222 211 208 210 215 218 220 223 223 224 230 230 225 224 225 222 219 217 215 212 216 225 226 223 224 228 232 234 234 235 237 236 234 235 238 243 247 251 255 257 256 257 258 258 256 255 257 259 259 257 256 257 259 261
210 216 216 215 214 212 213 215 211 207 206 208 210 209 208 210 211 212 212 210 209 209 210 214 212 214 221 223 224 228 230 226 227 229 224 215 208 206 210 215 219 222 221 221 227 231 229 229 229 227 221 217 216 216 221 227 229 230 230 230 232 233 235 235 235 237 237 238 240 242 246 251 255 258 258 258 258 258 257 256 257 259 258 257 257 258 259 261
206 210 215 215 213 211 210 212 212 209 207 208 207 205 206 208 209 211 210 210 211 210 210 213 214 216 221 223 223 226 227 223 223 224 223 218 210 203 203 209 216 218 218 220 225 230 229 227 227 226 224 222 222 222 225 228 230 234 236 235 236 237 238 238 237 238 239 240 243 244 249 251 254 258 260 259 256 254 254 254 255 257 258 258 258 259 259 260
205 205 211 213 212 209 208 210 209 208 208 208 207 206 206 207 208 210 209 210 211 210 210 212 214 216 220 223 225 226 226 223 221 219 218 217 211 204 203 206 214 215 216 219 222 227 226 223 226 227 225 226 227 226 225 226 228 231 233 237 240 240 241 242 241 241 241 243 246 246 249 251 251 255 259 258 256 255 255 255 256 256 258 259 259 259 259 260
206 202 207 211 212 207 205 207 206 206 207 206 207 208 209 209 209 211 212 213 213 211 210 211 212 213 215 219 222 224 226 224 223 220 215 214 210 205 204 206 212 215 215 215 214 216 217 221 228 230 228 226 227 228 227 228 229 228 230 235 239 241 242 243 244 243 241 244 250 249 250 253 253 255 258 258 258 258 257 256 256 256 255 256 258 260 261 261
209 203 205 209 211 208 204 204 205 207 207 206 208 209 209 210 210 212 216 218 218 216 215 216 216 216 215 218 220 222 224 223 224 223 217 214 211 207 205 205 210 214 211 210 211 211 213 222 230 230 228 227 227 228 228 229 230 230 231 232 236 240 241 242 244 244 243 246 252 254 256 257 256 255 255 256 258 258 256 254 253 254 253 253 255 256 259 260
210 206 205 205 208 210 207 205 206 208 207 207 209 209 208 209 209 212 216 219 221 220 218 219 221 221 219 220 222 222 222 223 223 221 217 216 213 208 207 207 210 213 209 210 214 216 221 230 232 228 227 229 230 232 231 230 231 232 232 232 234 237 238 242 245 249 251 252 253 254 259 259 253 249 250 253 256 256 255 253 252 253 254 254 254 254 255 258
213 209 208 207 206 209 211 210 210 209 208 208 209 209 209 209 209 211 215 220 224 222 219 220 221 222 220 220 224 223 224 225 221 218 216 217 216 211 209 209 212 216 213 211 215 220 229 236 234 228 226 226 230 234 233 231 233 233 233 233 234 236 238 243 246 248 249 250 249 247 253 262 255 250 250 251 253 255 255 252 251 253 255 256 257 256 257 259
218 213 212 211 207 209 211 213 213 212 210 209 209 209 210 210 210 212 215 223 234 228 219 219 221 221 218 219 222 223 227 228 223 220 221 219 218 215 214 212 214 218 216 216 219 222 230 234 232 231 224 220 224 229 232 234 236 237 236 234 235 237 240 242 243 241 238 244 248 241 239 260 261 255 255 254 253 255 255 253 253 253 256 258 260 261 262 262
222 218 216 214 211 213 212 212 214 213 212 210 207 209 209 209 210 212 214 225 243 232 223 219 219 219 219 221 221 218 223 229 224 222 222 220 216 214 216 215 215 217 216 218 224 225 227 226 227 228 224 221 220 224 233 234 232 238 240 236 234 236 241 242 240 237 238 243 247 241 239 255 261 255 255 255 252 255 255 253 253 254 255 258 260 262 264 266
223 221 220 216 213 216 215 212 214 215 214 210 206 209 208 207 209 208 209 209 219 224 226 221 216 217 221 224 224 219 218 224 225 222 218 218 215 209 212 217 218 219 217 218 223 224 225 225 225 224 221 222 223 226 233 229 228 240 243 237 236 239 245 244 238 236 239 242 245 242 239 252 262 256 254 253 248 249 253 253 254 255 257 259 261 264 265 269
223 221 221 219 217 218 216 212 212 213 213 208 207 209 207 208 208 203 206 220 199 206 218 216 212 214 219 222 226 224 221 222 226 222 217 218 219 212 213 216 218 222 221 221 223 224 226 230 231 228 222 222 225 228 229 225 230 240 239 239 243 245 246 243 239 238 238 237 239 240 236 239 263 258 248 244 241 244 251 256 257 258 260 262 263 265 266 267
222 220 220 220 219 217 213 210 208 207 206 203 203 206 207 206 201 196 203 215 213 218 213 204 207 213 216 217 222 225 221 221 223 220 217 219 223 223 221 218 217 221 222 223 226 225 227 231 233 233 230 230 232 231 227 224 229 232 229 233 239 238 238 239 238 237 236 234 234 238 236 231 257 260 247 241 244 249 254 258 261 262 262 263 264 265 266 266
220 219 218 220 221 217 213 210 205 203 202 199 199 202 204 202 198 195 208 209 216 229 217 200 200 209 216 216 218 222 219 220 221 220 217 217 221 224 222 217 214 217 221 224 226 226 228 231 232 232 233 233 232 230 227 224 222 225 226 226 226 222 227 234 233 229 227 229 233 239 238 227 238 256 253 251 254 256 256 257 260 262 262 263 264 265 266 266
216 216 216 219 222 220 216 212 205 203 202 197 197 199 196 194 200 204 206 208 217 226 213 213 207 206 215 218 219 222 218 215 218 220 220 216 215 219 219 216 211 210 215 219 223 226 228 229 230 230 229 224 222 221 222 222 219 220 220 217 214 200 213 224 220 222 222 231 236 239 236 228 237 246 249 255 259 257 255 256 258 260 264 265 264 266 267 268
213 210 213 217 220 219 216 211 205 204 204 200 198 198 194 188 205 210 205 199 200 209 209 216 219 212 214 215 218 221 219 216 216 217 221 222 219 219 220 220 216 212 213 215 218 223 229 231 229 229 230 224 219 216 214 214 214 215 212 209 206 188 189 215 208 222 224 231 237 237 233 232 239 247 251 249 250 252 253 255 258 261 264 264 265 266 264 263
212 204 208 214 217 217 214 209 204 202 202 201 197 195 195 195 212 213 211 204 196 213 206 203 211 216 218 217 217 217 214 215 217 216 217 221 222 221 221 223 221 218 217 215 215 218 224 233 229 226 228 227 225 223 222 219 217 216 215 212 208 204 207 212 211 218 215 228 232 224 221 215 230 247 254 252 250 251 250 252 257 258 250 249 257 259 256 249
211 202 204 210 212 214 212 207 204 203 202 199 196 194 195 201 210 214 218 214 210 220 218 205 208 210 216 222 222 220 215 213 215 216 216 217 220 221 220 221 221 218 218 215 213 216 220 231 232 228 228 229 228 229 229 224 219 220 219 215 213 214 216 224 237 230 218 222 218 207 211 214 234 247 252 254 255 251 250 252 252 248 234 235 247 248 250 241
211 201 201 207 209 210 210 206 204 204 203 199 198 200 203 208 213 216 220 220 219 223 226 230 226 213 212 218 221 222 220 217 214 214 217 219 222 223 222 221 220 217 218 216 211 211 217 231 236 233 230 231 231 230 227 221 219 220 215 215 221 222 220 225 244 234 213 218 218 210 222 231 240 252 250 249 254 251 249 248 244 242 238 243 251 246 248 247
213 203 202 205 206 207 208 206 205 205 203 203 206 210 213 217 219 220 222 224 225 226 228 237 244 231 218 214 216 220 219 218 217 215 216 218 222 225 224 224 223 221 222 222 219 218 219 229 235 233 230 231 231 230 229 226 223 220 214 218 223 223 221 220 227 222 199 224 221 211 224 228 228 247 251 245 245 248 248 243 240 245 245 249 253 247 251 258
214 205 203 204 204 205 206 205 205 206 203 204 213 218 218 220 223 224 226 229 229 229 230 233 238 245 241 224 220 221 217 215 216 215 216 217 222 226 225 224 226 226 226 224 223 225 225 230 235 232 231 232 228 225 226 225 222 219 218 221 219 214 215 214 212 220 211 224 223 214 227 227 219 234 247 245 245 248 247 241 240 243 245 251 254 251 257 264
209 203 201 202 202 202 204 204 204 205 203 206 214 220 222 224 225 225 227 229 232 233 232 232 235 241 248 246 237 229 221 217 217 215 215 217 222 228 227 226 226 227 227 223 223 225 225 226 235 232 232 230 222 218 220 220 221 221 220 219 217 216 218 214 213 223 220 220 227 219 225 225 225 236 245 248 251 252 247 245 244 244 248 254 254 256 262 261
200 198 199 200 199 199 200 201 201 202 204 211 217 221 224 225 225 226 227 229 233 235 235 236 237 239 244 248 251 249 237 225 219 217 217 218 220 227 230 228 227 230 229 226 228 229 224 222 229 233 228 218 213 216 220 220 218 219 219 217 216 217 219 221 222 223 223 229 229 221 229 228 233 242 247 249 253 252 249 251 250 246 248 249 251 260 262 242
193 193 196 196 197 198 195 194 199 203 208 215 219 222 225 226 226 225 227 229 231 236 239 239 240 241 244 248 254 258 254 243 227 218 220 223 223 226 230 230 229 231 228 225 225 227 225 226 230 232 224 214 218 227 231 227 222 221 221 220 219 216 213 217 226 222 223 227 223 221 243 241 239 245 250 252 255 254 253 254 252 248 248 250 253 257 248 233
191 190 192 193 194 196 194 195 201 206 211 216 220 222 224 227 229 228 228 229 231 234 239 242 243 243 244 248 252 255 256 257 251 238 228 227 227 230 234 234 232 231 229 225 226 229 230 231 231 233 233 231 234 237 234 231 230 230 229 226 224 221 215 214 221 217 219 224 227 231 244 243 241 244 248 252 254 255 256 255 254 253 254 255 255 251 245 243
189 188 188 192 196 195 194 198 205 210 215 220 223 225 226 229 232 232 230 231 233 236 238 241 243 243 244 247 250 251 252 256 259 256 250 242 235 233 236 238 235 233 229 226 228 228 227 226 226 232 239 241 243 241 234 227 224 227 230 229 227 225 223 225 229 227 222 218 219 227 244 237 240 244 246 249 252 252 252 248 247 251 253 253 251 245 241 240
185 185 181 187 195 196 198 202 207 213 218 221 223 226 229 232 234 235 234 232 233 237 239 241 242 243 244 246 249 251 250 251 256 258 258 258 251 238 232 233 234 233 229 227 227 225 222 220 219 224 238 239 239 240 236 226 219 220 226 228 227 228 228 230 231 232 232 222 217 219 233 234 240 245 246 247 247 245 243 240 238 244 248 245 239 231 229 232
181 184 179 183 192 199 205 210 213 217 220 222 224 226 228 232 236 237 238 238 236 238 241 244 245 246 247 248 250 251 250 249 253 257 258 262 264 254 240 231 229 231 233 235 233 229 226 220 216 216 216 221 225 228 230 229 225 222 223 225 226 226 227 228 229 231 234 227 222 222 228 235 240 245 245 244 243 242 244 243 243 247 245 238 233 228 229 234
187 190 185 183 191 201 209 213 216 221 222 222 225 227 228 233 237 238 239 240 239 239 242 245 249 250 250 250 251 252 253 252 253 258 260 260 263 264 256 243 233 229 231 233 232 229 227 224 222 223 224 226 231 234 235 234 230 225 224 224 225 226 227 227 226 228 231 234 233 231 231 234 239 243 246 244 241 242 244 245 246 247 240 234 233 232 236 240
193 198 198 191 192 201 209 213 217 223 225 225 227 230 230 233 236 237 239 240 240 241 242 245 248 249 249 250 250 251 253 254 255 256 258 259 257 258 259 251 241 233 229 229 229 226 223 223 225 228 230 233 235 236 235 232 230 231 230 228 226 226 227 226 225 229 232 234 239 238 234 234 239 244 247 247 244 243 245 247 250 250 246 245 245 243 244 244
201 205 209 206 202 203 209 214 217 221 226 227 230 234 234 235 235 236 239 241 240 240 240 242 245 246 248 249 249 251 252 251 253 254 255 257 256 255 255 252 247 240 233 232 232 228 225 226 228 230 233 236 238 237 236 233 236 240 238 235 232 230 228 226 227 231 231 230 236 239 238 238 241 246 248 248 248 248 251 254 255 256 255 254 251 247 244 240
211 211 210 212 212 212 216 221 222 223 226 229 232 235 236 237 238 239 240 240 239 240 240 242 246 247 247 248 247 249 249 246 248 252 254 254 254 255 257 256 254 252 250 247 239 230 227 230 231 231 234 237 238 239 240 240 242 243 242 241 238 234 232 231 232 234 232 232 236 239 239 240 243 248 251 250 251 254 257 258 256 256 255 251 248 247 242 237
218 221 219 216 217 219 224 229 227 226 227 229 233 236 237 239 241 242 242 242 242 243 243 244 248 248 247 248 247 248 250 250 251 253 253 255 256 258 259 260 260 261 264 265 251 233 228 230 232 232 234 237 238 239 240 239 239 240 241 242 240 238 236 234 234 235 234 234 236 237 239 240 242 246 251 252 253 254 254 251 248 248 246 243 246 246 241 238
220 222 228 230 228 226 229 233 233 230 230 232 235 236 236 238 242 244 246 247 248 249 248 249 252 252 249 248 249 252 253 254 255 257 258 259 261 262 263 264 267 268 269 271 265 255 250 241 231 228 230 235 236 236 236 236 236 237 238 238 237 237 237 235 235 234 233 233 233 233 234 236 239 244 249 251 252 251 248 246 245 245 245 246 250 248 242 240
230 224 226 234 239 234 232 236 236 233 236 239 238 237 238 242 245 246 249 251 251 251 253 256 257 256 252 250 250 253 256 257 261 264 264 263 263 265 267 268 270 271 270 270 271 271 273 266 242 229 226 232 235 235 235 235 235 235 233 233 235 237 238 238 238 238 236 234 232 231 235 239 242 245 246 249 250 249 247 246 248 250 251 251 251 248 243 241
Height
3037 3039 3043 3046 3049 3052 3055 3058 3062 3065 3068 3072 3076 3079 3082 3085 3088 3090 3092 3095 3099 3102 3105 3108 3111 3115 3118 3121 3124 3126 3128 3129 3132 3133 3135 3143 3150 3151 3153 3156 3158 3159 3161 3163 3165 3167 3168 3169 3169 3170 3171 3172 3173 3174 3174 3175 3176 3176 3177 3177 3177 3178 3179 3179 3180 3180 3180 3180 3181 3182 3182 3182 3183 3183 3183 3183 3183 3183 3183 3183 3183 3183 3183 3184 3184 3184 3184 3185
3032 3035 3038 3041 3044 3047 3051 3054 3057 3060 3064 3068 3072 3075 3078 3081 3084 3087 3089 3092 3095 3098 3102 3105 3108 3110 3114 3117 3120 3123 3125 3126 3128 3127 3133 3143 3147 3147 3150 3153 3156 3158 3159 3161 3162 3165 3167 3167 3168 3169 3170 3171 3172 3173 3173 3174 3174 3175 3175 3176 3176 3177 3178 3179 3179 3179 3179 3180 3180 3181 3182 3182 3182 3182 3182 3182 3182 3183 3183 3183 3183 3183 3183 3183 3184 3184 3184 3184
3028 3031 3035 3038 3040 3043 3046 3049 3053 3056 3059 3063 3067 3071 3074 3077 3081 3083 3086 3088 3091 3095 3099 3102 3105 3107 3109 3112 3116 3120 3122 3124 3122 3121 3132 3141 3143 3144 3148 3150 3154 3155 3157 3158 3160 3162 3164 3165 3166 3167 3168 3169 3170 3171 3172 3172 3173 3174 3174 3174 3175 3177 3178 3178 3178 3178 3179 3180 3180 3180 3181 3181 3181 3181 3182 3182 3182 3182 3182 3183 3183 3183 3183 3183 3183 3184 3184 3184
3024 3027 3031 3034 3036 3039 3043 3046 3048 3052 3055 3059 3062 3066 3069 3073 3077 3080 3082 3085 3088 3091 3095 3099 3102 3104 3106 3108 3112 3116 3119 3120 3115 3119 3132 3138 3139 3142 3145 3148 3151 3153 3154 3156 3157 3159 3161 3163 3164 3165 3166 3167 3169 3169 3170 3171 3172 3172 3172 3173 3174 3176 3177 3177 3177 3177 3178 3179 3179 3179 3180 3180 3180 3180 3181 3181 3181 3181 3182 3182 3183 3182 3182 3182 3183 3183 3183 3184
3020 3023 3027 3030 3033 3036 3039 3042 3045 3048 3051 3055 3058 3061 3065 3069 3073 3076 3079 3082 3085 3088 3091 3095 3099 3102 3103 3105 3107 3111 3117 3116 3110 3119 3131 3133 3136 3140 3142 3145 3148 3150 3151 3153 3154 3156 3158 3160 3161 3163 3164 3165 3167 3167 3168 3170 3170 3170 3171 3172 3173 3175 3175 3176 3176 3176 3177 3178 3179 3178 3178 3179 3179 3179 3180 3180 3180 3181 3181 3181 3182 3182 3182 3182 3182 3182 3183 3183
3017 3020 3023 3026 3029 3032 3035 3039 3041 3044 3048 3051 3054 3058 3061 3065 3069 3073 3076 3079 3082 3085 3088 3092 3096 3099 3100 3102 3104 3106 3110 3110 3109 3119 3128 3130 3134 3137 3139 3142 3144 3147 3148 3149 3151 3153 3155 3157 3158 3160 3162 3163 3164 3165 3167 3169 3169 3168 3169 3170 3172 3173 3174 3174 3175 3175 3176 3177 3177 3177 3177 3177 3178 3178 3179 3179 3180 3180 3180 3180 3181 3182 3182 3181 3181 3182 3182 3182
3013 3016 3019 3022 3025 3029 3032 3036 3038 3041 3044 3047 3051 3054 3058 3061 3065 3069 3073 3077 3079 3082 3085 3089 3092 3096 3098 3099 3100 3102 3102 3105 3110 3117 3123 3127 3131 3134 3137 3139 3140 3142 3144 3146 3148 3150 3153 3154 3156 3158 3160 3161 3162 3163 3166 3167 3166 3166 3167 3169 3170 3171 3172 3173 3173 3174 3174 3175 3176 3176 3176 3176 3177 3177 3177 3178 3179 3179 3179 3179 3180 3180 3181 3181 3181 3181 3181 3182
3009 3012 3016 3018 3021 3025 3029 3031 3034 3038 3041 3044 3047 3051 3054 3058 3061 3065 3069 3073 3077 3080 3083 3086 3090 3092 3094 3095 3097 3097 3095 3100 3108 3114 3120 3125 3128 3131 3133 3134 3135 3138 3140 3143 3146 3148 3150 3152 3154 3155 3157 3159 3160 3162 3164 3164 3164 3164 3165 3167 3168 3169 3170 3171 3172 3172 3173 3173 3174 3174 3174 3175 3175 3175 3175 3176 3177 3177 3178 3178 3178 3179 3179 3180 3180 3180 3180 3181
3006 3009 3012 3015 3018 3022 3025 3028 3031 3035 3038 3041 3044 3047 3051 3055 3058 3062 3065 3070 3074 3078 3080 3084 3087 3089 3091 3092 3094 3091 3090 3099 3108 3111 3117 3123 3126 3128 3129 3130 3133 3136 3138 3141 3144 3146 3147 3149 3152 3153 3155 3157 3158 3159 3161 3161 3161 3162 3164 3166 3166 3167 3168 3168 3169 3170 3171 3171 3172 3172 3172 3173 3173 3173 3173 3175 3176 3176 3176 3177 3177 3177 3177 3178 3179 3179 3179 3180
3003 3006 3009 3012 3016 3019 3022 3025 3028 3032 3035 3038 3041 3044 3048 3052 3055 3058 3062 3067 3071 3075 3078 3081 3085 3087 3087 3088 3089 3085 3088 3100 3106 3108 3114 3119 3123 3124 3126 3129 3132 3134 3136 3139 3141 3142 3144 3147 3150 3152 3153 3154 3155 3156 3158 3158 3158 3160 3162 3162 3163 3164 3165 3165 3166 3167 3168 3169 3169 3170 3170 3171 3171 3171 3170 3173 3175 3174 3174 3175 3175 3176 3176 3177 3177 3178 3178 3178
3000 3003 3005 3008 3012 3016 3019 3023 3026 3029 3032 3036 3039 3041 3045 3049 3052 3055 3059 3063 3067 3071 3074 3079 3082 3083 3083 3084 3083 3081 3089 3099 3102 3105 3110 3114 3118 3121 3123 3126 3128 3131 3133 3136 3138 3140 3143 3146 3148 3148 3149 3150 3151 3153 3155 3155 3156 3158 3159 3159 3160 3162 3162 3163 3164 3165 3165 3166 3166 3167 3168 3168 3168 3167 3168 3171 3173 3173 3173 3173 3173 3174 3175 3175 3176 3176 3177 3177
2997 3000 3003 3005 3008 3012 3016 3020 3023 3026 3029 3033 3036 3039 3042 3046 3049 3053 3056 3060 3065 3068 3071 3075 3078 3080 3081 3079 3078 3081 3090 3098 3100 3103 3106 3110 3113 3117 3120 3123 3124 3127 3128 3131 3135 3138 3141 3144 3145 3145 3146 3147 3149 3152 3152 3152 3154 3156 3157 3156 3157 3159 3159 3160 3162 3162 3162 3163 3164 3166 3164 3164 3164 3164 3167 3170 3171 3172 3172 3172 3172 3172 3173 3174 3174 3175 3175 3176
2994 2997 3000 3003 3005 3008 3012 3017 3020 3023 3027 3030 3033 3037 3039 3043 3047 3050 3053 3058 3062 3065 3068 3071 3075 3078 3077 3073 3075 3082 3089 3094 3096 3098 3103 3106 3109 3112 3116 3119 3121 3122 3124 3127 3131 3136 3139 3141 3142 3142 3143 3143 3146 3148 3148 3150 3151 3153 3155 3154 3155 3155 3154 3156 3160 3159 3160 3161 3162 3163 3160 3158 3162 3164 3166 3169 3169 3170 3170 3170 3170 3170 3171 3172 3172 3172 3173 3174
2992 2995 2998 3001 3003 3005 3009 3014 3017 3021 3024 3027 3030 3034 3037 3041 3044 3047 3051 3055 3059 3062 3065 3068 3071 3074 3072 3070 3073 3079 3086 3091 3091 3093 3098 3102 3104 3108 3112 3115 3118 3118 3121 3124 3128 3132 3135 3137 3138 3139 3139 3140 3143 3145 3146 3148 3148 3150 3152 3151 3151 3150 3148 3153 3157 3157 3158 3159 3160 3160 3156 3154 3159 3162 3165 3167 3167 3167 3167 3168 3168 3168 3169 3169 3169 3170 3171 3171
2990 2993 2996 2998 3001 3003 3006 3010 3014 3018 3022 3024 3027 3031 3034 3038 3041 3045 3049 3052 3056 3060 3063 3064 3066 3069 3069 3067 3070 3077 3083 3084 3084 3088 3094 3098 3101 3104 3108 3111 3115 3117 3119 3121 3123 3126 3130 3132 3133 3134 3136 3137 3140 3142 3143 3145 3145 3148 3148 3145 3145 3146 3145 3150 3154 3154 3155 3156 3157 3157 3152 3151 3156 3160 3162 3164 3165 3164 3164 3165 3166 3166 3167 3167 3167 3168 3168 3169
2989 2991 2993 2996 2999 3002 3004 3007 3011 3015 3019 3022 3025 3028 3032 3035 3039 3042 3045 3050 3054 3058 3060 3060 3063 3067 3066 3065 3069 3074 3077 3077 3080 3085 3090 3096 3099 3102 3106 3109 3112 3115 3117 3118 3119 3121 3125 3128 3129 3130 3132 3135 3137 3139 3141 3142 3142 3143 3142 3140 3141 3142 3143 3146 3149 3151 3153 3154 3154 3152 3150 3149 3153 3157 3160 3161 3161 3162 3161 3162 3163 3164 3164 3164 3165 3165 3166 3167
2987 2989 2991 2994 2997 3000 3003 3005 3008 3012 3016 3020 3023 3025 3029 3032 3036 3040 3043 3047 3050 3054 3056 3056 3061 3065 3062 3062 3066 3069 3071 3075 3079 3082 3088 3094 3096 3099 3103 3105 3108 3111 3113 3115 3116 3118 3121 3124 3125 3126 3128 3130 3133 3136 3139 3136 3133 3135 3137 3136 3137 3139 3141 3142 3144 3147 3150 3151 3150 3149 3147 3147 3150 3153 3156 3157 3158 3158 3158 3159 3160 3161 3162 3162 3162 3162 3163 3164
2985 2988 2990 2992 2994 2998 3001 3003 3006 3009 3012 3017 3020 3022 3026 3029 3033 3036 3038 3042 3045 3049 3050 3051 3057 3059 3056 3058 3062 3065 3070 3073 3076 3081 3086 3090 3093 3097 3099 3102 3104 3106 3109 3111 3112 3114 3117 3120 3121 3122 3123 3125 3127 3130 3128 3123 3125 3130 3133 3132 3133 3135 3136 3137 3140 3144 3146 3148 3147 3146 3143 3144 3147 3149 3151 3153 3154 3155 3155 3156 3156 3157 3158 3159 3159 3159 3160 3160
2983 2986 2989 2991 2993 2995 2998 3002 3005 3007 3010 3013 3015 3019 3023 3026 3029 3031 3034 3037 3039 3041 3043 3044 3048 3050 3051 3056 3060 3063 3067 3071 3075 3078 3081 3085 3090 3093 3096 3099 3101 3102 3103 3104 3105 3107 3112 3116 3117 3116 3117 3117 3119 3120 3119 3120 3125 3129 3130 3130 3131 3132 3132 3134 3138 3141 3144 3145 3143 3142 3140 3141 3143 3144 3146 3150 3151 3152 3152 3153 3153 3153 3154 3155 3156 3156 3157 3157
2981 2984 2987 2989 2991 2994 2996 3000 3003 3005 3008 3009 3012 3016 3018 3020 3024 3026 3028 3031 3033 3036 3039 3040 3044 3048 3051 3054 3057 3060 3064 3067 3069 3072 3076 3081 3085 3089 3092 3094 3096 3096 3096 3098 3100 3101 3107 3110 3109 3109 3111 3113 3115 3117 3119 3122 3125 3127 3128 3129 3129 3130 3130 3132 3136 3139 3142 3141 3139 3139 3138 3138 3140 3140 3142 3145 3147 3148 3148 3149 3149 3149 3150 3151 3152 3152 3153 3153
2981 2983 2986 2988 2990 2993 2995 2998 3001 3003 3005 3007 3010 3012 3013 3016 3019 3022 3025 3028 3030 3034 3037 3039 3043 3047 3049 3052 3054 3057 3060 3061 3064 3067 3071 3076 3082 3085 3086 3088 3090 3089 3090 3094 3097 3098 3102 3104 3103 3105 3108 3112 3115 3117 3120 3121 3121 3123 3125 3125 3126 3127 3127 3130 3134 3136 3140 3138 3134 3136 3135 3133 3136 3137 3137 3140 3141 3142 3144 3145 3145 3146 3147 3147 3147 3148 3149 3149
2981 2981 2984 2987 2989 2992 2994 2996 2999 3001 3003 3005 3007 3009 3012 3015 3018 3022 3025 3026 3028 3031 3034 3036 3039 3042 3046 3049 3051 3053 3055 3058 3061 3063 3067 3072 3076 3078 3081 3084 3085 3085 3088 3092 3092 3094 3095 3094 3096 3102 3108 3111 3113 3115 3117 3118 3119 3120 3121 3122 3122 3123 3125 3129 3131 3133 3137 3134 3130 3133 3132 3128 3132 3134 3133 3134 3135 3136 3139 3140 3141 3142 3142 3142 3143 3144 3145 3146
2980 2981 2983 2985 2988 2991 2993 2995 2997 2999 3002 3003 3005 3008 3011 3014 3018 3021 3023 3025 3027 3029 3031 3033 3035 3039 3042 3044 3046 3050 3052 3054 3056 3059 3064 3067 3069 3074 3077 3079 3081 3083 3086 3085 3085 3088 3086 3084 3089 3099 3106 3109 3109 3111 3114 3115 3116 3116 3117 3118 3118 3120 3124 3126 3128 3131 3134 3132 3129 3130 3128 3124 3127 3128 3127 3128 3129 3131 3134 3135 3136 3137 3137 3138 3139 3140 3141 3141
2980 2981 2982 2984 2987 2989 2991 2993 2994 2996 3000 3002 3005 3007 3010 3013 3016 3019 3021 3023 3023 3025 3028 3031 3034 3036 3039 3041 3044 3047 3048 3051 3053 3056 3061 3063 3066 3071 3073 3076 3078 3079 3081 3081 3081 3081 3079 3082 3089 3096 3101 3104 3105 3107 3110 3112 3111 3111 3112 3114 3115 3118 3122 3123 3127 3131 3131 3130 3127 3128 3125 3116 3118 3121 3121 3124 3125 3125 3127 3129 3130 3131 3132 3134 3135 3136 3137 3137
2980 2981 2982 2983 2986 2987 2989 2991 2993 2995 2998 3001 3004 3007 3009 3012 3015 3017 3020 3021 3020 3022 3025 3028 3030 3031 3035 3040 3041 3043 3046 3047 3050 3054 3057 3060 3063 3067 3070 3074 3074 3074 3077 3079 3080 3079 3078 3084 3090 3092 3094 3097 3100 3103 3106 3107 3107 3106 3107 3110 3113 3117 3120 3123 3127 3129 3128 3124 3123 3128 3122 3108 3108 3115 3115 3119 3121 3118 3120 3122 3123 3125 3127 3129 3130 3131 3133 3134
2979 2979 2981 2983 2984 2985 2987 2989 2992 2994 2996 2999 3002 3006 3008 3010 3014 3016 3019 3020 3017 3017 3020 3023 3025 3027 3031 3033 3035 3041 3043 3041 3047 3053 3055 3058 3061 3065 3067 3069 3069 3071 3074 3078 3079 3076 3076 3082 3086 3087 3090 3093 3095 3097 3099 3104 3105 3102 3102 3107 3112 3116 3118 3120 3123 3125 3123 3119 3120 3125 3121 3105 3102 3108 3109 3113 3115 3112 3114 3115 3117 3120 3122 3123 3125 3126 3128 3129
2977 2978 2979 2982 2984 2984 2985 2988 2991 2993 2995 2998 3001 3004 3007 3009 3013 3015 3019 3020 3015 3012 3017 3019 3021 3024 3026 3027 3031 3037 3036 3036 3044 3048 3050 3055 3057 3060 3062 3062 3065 3067 3071 3076 3073 3070 3073 3078 3079 3081 3086 3088 3088 3088 3092 3099 3099 3095 3099 3107 3110 3112 3114 3115 3119 3120 3117 3117 3118 3119 3120 3109 3097 3098 3104 3107 3109 3108 3108 3109 3111 3114 3117 3118 3120 3121 3123 3124
2975 2977 2978 2980 2982 2982 2985 2988 2990 2992 2994 2997 3000 3003 3005 3008 3012 3014 3017 3017 3011 3009 3012 3014 3019 3023 3023 3024 3028 3031 3032 3035 3039 3040 3047 3053 3052 3054 3055 3056 3060 3063 3067 3068 3064 3065 3071 3073 3073 3076 3080 3080 3078 3080 3087 3095 3094 3092 3099 3104 3106 3109 3110 3112 3115 3115 3113 3115 3114 3113 3119 3110 3089 3089 3099 3101 3102 3102 3101 3103 3106 3109 3112 3114 3115 3117 3118 3120
2973 2975 2976 2979 2980 2981 2984 2985 2988 2991 2994 2997 3000 3002 3004 3007 3010 3013 3015 3013 3007 3005 3007 3010 3016 3017 3017 3020 3023 3026 3032 3034 3035 3039 3046 3048 3048 3050 3051 3053 3058 3061 3063 3063 3061 3066 3069 3069 3072 3073 3074 3074 3076 3081 3087 3091 3090 3092 3097 3101 3104 3106 3107 3111 3111 3110 3112 3109 3106 3107 3114 3108 3085 3080 3091 3092 3091 3093 3095 3099 3103 3105 3108 3109 3111 3113 3114 3116
2971 2972 2975 2976 2977 2978 2980 2982 2985 2989 2991 2995 2997 3000 3003 3005 3007 3009 3010 3007 3004 3004 3005 3007 3009 3010 3012 3017 3017 3020 3026 3029 3033 3038 3041 3042 3045 3047 3048 3052 3056 3057 3060 3061 3061 3064 3067 3068 3069 3069 3069 3073 3078 3082 3085 3088 3089 3092 3096 3099 3102 3103 3104 3107 3105 3107 3107 3099 3098 3101 3104 3106 3086 3069 3078 3083 3081 3087 3092 3095 3098 3100 3103 3105 3106 3108 3109 3111
2968 2970 2972 2973 2974 2976 2978 2980 2983 2986 2989 2992 2995 2997 3000 3003 3004 3005 3003 3002 3003 3003 3002 3004 3005 3007 3010 3012 3013 3015 3020 3025 3030 3033 3034 3038 3041 3042 3044 3048 3051 3053 3056 3056 3057 3061 3063 3063 3063 3064 3067 3072 3077 3079 3081 3084 3087 3089 3092 3096 3098 3099 3101 3102 3100 3102 3098 3089 3091 3093 3096 3104 3085 3062 3070 3077 3077 3084 3087 3089 3093 3096 3097 3099 3101 3103 3105 3107
2964 2967 2969 2970 2972 2974 2976 2980 2983 2985 2988 2991 2993 2994 2997 3000 3000 3000 3000 3002 3003 2999 2999 3003 3004 3005 3007 3009 3010 3011 3015 3019 3023 3027 3030 3033 3034 3034 3036 3038 3042 3046 3047 3049 3053 3056 3055 3055 3058 3062 3065 3068 3071 3074 3076 3079 3082 3084 3087 3091 3093 3095 3097 3096 3094 3092 3088 3083 3085 3089 3093 3093 3076 3062 3069 3074 3075 3080 3082 3084 3089 3091 3093 3095 3097 3099 3100 3102
2961 2964 2966 2967 2969 2972 2975 2979 2983 2985 2987 2989 2991 2993 2995 2996 2994 2995 2998 2998 2998 2997 2998 3001 3003 3004 3005 3006 3007 3009 3012 3015 3018 3023 3026 3029 3031 3031 3032 3034 3038 3040 3041 3046 3050 3050 3050 3050 3054 3058 3059 3062 3064 3065 3067 3069 3073 3075 3078 3081 3083 3086 3088 3087 3085 3083 3081 3080 3081 3087 3091 3081 3069 3065 3066 3070 3074 3077 3079 3082 3084 3086 3089 3090 3092 3095 3096 3097
2958 2960 2962 2964 2967 2970 2974 2978 2980 2982 2985 2987 2989 2992 2993 2993 2992 2993 2994 2994 2995 2996 2997 2998 3000 3003 3003 3003 3005 3007 3009 3012 3014 3018 3021 3024 3026 3027 3029 3031 3034 3038 3041 3044 3044 3046 3046 3042 3044 3049 3051 3055 3057 3058 3060 3064 3066 3066 3069 3073 3073 3074 3076 3075 3075 3074 3074 3076 3077 3084 3083 3071 3065 3064 3061 3065 3071 3073 3076 3078 3080 3084 3085 3086 3088 3090 3090 3092
2954 2956 2959 2961 2964 2967 2971 2976 2978 2980 2983 2985 2987 2988 2989 2989 2990 2990 2991 2992 2995 2995 2996 2997 2999 3000 3000 3002 3004 3005 3007 3009 3012 3015 3016 3017 3018 3020 3024 3026 3029 3034 3037 3038 3039 3041 3041 3035 3037 3044 3046 3049 3052 3054 3059 3063 3063 3064 3068 3069 3064 3066 3070 3070 3069 3067 3070 3072 3072 3074 3070 3062 3062 3061 3059 3063 3064 3067 3072 3073 3076 3080 3080 3082 3084 3085 3086 3089
2951 2953 2955 2957 2960 2964 2968 2973 2976 2978 2980 2983 2985 2984 2983 2984 2986 2987 2988 2991 2992 2993 2995 2997 2997 2998 2998 2999 3001 3003 3005 3007 3010 3012 3012 3014 3015 3016 3020 3023 3025 3028 3030 3033 3035 3036 3036 3033 3035 3040 3042 3044 3047 3051 3055 3057 3058 3060 3060 3057 3058 3065 3068 3068 3067 3065 3067 3067 3063 3063 3061 3060 3062 3058 3056 3060 3059 3061 3065 3066 3070 3073 3074 3076 3077 3079 3082 3084
2949 2951 2953 2955 2958 2962 2966 2971 2974 2976 2978 2981 2981 2980 2981 2982 2983 2985 2987 2989 2991 2993 2995 2996 2996 2996 2996 2997 2998 2999 3002 3005 3007 3008 3008 3011 3012 3012 3016 3020 3023 3025 3027 3031 3034 3033 3033 3031 3031 3034 3035 3038 3044 3049 3051 3051 3053 3052 3049 3051 3059 3064 3063 3064 3064 3062 3064 3061 3056 3055 3054 3057 3059 3051 3048 3055 3054 3054 3057 3060 3064 3066 3069 3070 3071 3074 3076 3078
2947 2949 2951 2954 2957 2961 2965 2969 2972 2974 2976 2979 2978 2978 2979 2980 2982 2984 2986 2988 2990 2992 2993 2994 2994 2995 2994 2995 2996 2997 2999 3001 3002 3003 3005 3007 3006 3007 3012 3016 3018 3021 3025 3030 3031 3031 3031 3030 3029 3030 3031 3035 3041 3045 3044 3045 3046 3044 3044 3051 3056 3055 3054 3056 3057 3055 3057 3055 3050 3050 3047 3048 3049 3044 3044 3049 3049 3049 3052 3055 3058 3060 3064 3066 3067 3070 3071 3073
2943 2946 2948 2952 2956 2960 2964 2968 2970 2972 2975 2975 2974 2975 2976 2978 2980 2982 2984 2986 2988 2990 2990 2991 2993 2993 2993 2993 2994 2995 2997 2997 2997 3000 3002 3002 3002 3004 3007 3011 3014 3017 3022 3025 3026 3027 3029 3029 3027 3026 3029 3032 3035 3035 3033 3035 3038 3040 3044 3048 3047 3047 3046 3047 3047 3047 3048 3047 3044 3045 3041 3037 3038 3040 3042 3044 3045 3047 3049 3051 3053 3056 3059 3062 3064 3066 3067 3068
2939 2942 2945 2949 2954 2957 2961 2966 2968 2970 2970 2970 2969 2971 2973 2975 2977 2980 2982 2984 2986 2987 2988 2989 2990 2991 2990 2991 2992 2994 2995 2995 2996 2997 2998 2998 3000 3002 3004 3007 3010 3013 3018 3020 3022 3025 3026 3024 3024 3025 3026 3026 3025 3023 3024 3028 3032 3035 3038 3039 3039 3039 3040 3041 3041 3040 3041 3040 3038 3039 3034 3028 3031 3037 3039 3040 3042 3044 3046 3048 3049 3051 3055 3057 3060 3062 3063 3064
2938 2941 2943 2947 2951 2955 2958 2962 2963 2964 2965 2965 2966 2968 2970 2972 2975 2977 2980 2982 2983 2984 2985 2986 2988 2988 2989 2989 2989 2991 2993 2993 2994 2995 2995 2996 2998 2998 3000 3003 3006 3010 3013 3014 3015 3018 3020 3020 3021 3021 3020 3018 3017 3018 3022 3025 3027 3029 3029 3029 3029 3031 3033 3034 3032 3032 3035 3034 3032 3033 3027 3022 3028 3034 3035 3038 3038 3039 3042 3043 3045 3047 3051 3053 3056 3058 3060 3061
2937 2940 2942 2946 2949 2953 2956 2958 2959 2961 2961 2961 2962 2965 2967 2969 2971 2974 2977 2980 2981 2982 2983 2983 2984 2986 2986 2986 2987 2988 2989 2990 2991 2992 2992 2993 2994 2996 2998 3000 3003 3006 3007 3007 3008 3012 3016 3017 3017 3016 3015 3015 3016 3017 3020 3022 3026 3027 3024 3023 3026 3028 3028 3029 3027 3028 3031 3029 3029 3030 3023 3019 3026 3030 3031 3033 3033 3034 3036 3038 3041 3043 3046 3049 3052 3054 3056 3057
2937 2940 2944 2947 2949 2952 2954 2956 2957 2957 2957 2959 2961 2964 2966 2967 2969 2972 2975 2977 2978 2979 2979 2979 2980 2982 2982 2983 2984 2985 2987 2987 2986 2988 2990 2990 2991 2994 2997 2999 3001 3002 3003 3003 3005 3010 3012 3011 3012 3013 3013 3013 3014 3014 3014 3017 3020 3019 3016 3019 3022 3022 3024 3026 3025 3027 3027 3023 3025 3026 3019 3017 3023 3026 3027 3029 3029 3030 3032 3034 3037 3040 3042 3044 3047 3050 3052 3052
2938 2942 2945 2947 2949 2951 2950 2950 2951 2952 2954 2958 2960 2962 2964 2965 2967 2969 2971 2974 2975 2975 2975 2975 2976 2978 2978 2980 2981 2982 2984 2985 2984 2985 2987 2987 2988 2991 2994 2996 2997 2997 2998 2999 3001 3004 3005 3004 3007 3010 3010 3008 3008 3008 3007 3009 3011 3008 3008 3013 3015 3019 3023 3024 3023 3024 3019 3015 3018 3019 3013 3014 3020 3022 3022 3024 3025 3027 3029 3032 3034 3036 3038 3040 3042 3045 3047 3048
2939 2942 2944 2945 2947 2948 2947 2947 2949 2951 2953 2956 2958 2959 2962 2962 2963 2965 2968 2970 2972 2972 2972 2972 2973 2975 2976 2977 2978 2978 2979 2982 2982 2982 2983 2983 2984 2986 2988 2990 2991 2992 2993 2996 2998 2999 2997 2996 2998 2999 2998 2997 2995 2994 2996 3001 3004 3003 3003 3006 3009 3013 3016 3015 3016 3015 3010 3010 3014 3010 3007 3012 3017 3018 3017 3019 3021 3023 3026 3029 3031 3033 3035 3037 3039 3041 3042 3044
2939 2941 2943 2944 2945 2945 2946 2948 2950 2951 2952 2954 2955 2957 2959 2959 2960 2962 2965 2966 2968 2969 2969 2969 2970 2972 2973 2974 2974 2974 2975 2978 2979 2979 2979 2980 2981 2981 2982 2985 2986 2986 2989 2992 2993 2993 2992 2990 2989 2987 2987 2986 2986 2989 2993 2996 2998 2998 2999 3001 3003 3005 3006 3009 3009 3004 3005 3010 3008 3004 3008 3013 3014 3014 3013 3013 3016 3019 3022 3025 3026 3029 3031 3033 3035 3037 3038 3040
2938 2940 2942 2943 2944 2944 2944 2946 2947 2947 2950 2952 2952 2953 2955 2956 2957 2960 2961 2962 2963 2965 2966 2966 2967 2967 2968 2970 2971 2971 2971 2974 2975 2975 2975 2976 2977 2979 2979 2980 2982 2982 2984 2986 2986 2986 2984 2982 2982 2982 2981 2981 2985 2989 2991 2992 2993 2994 2995 2996 2998 3000 3002 3003 2999 2998 3006 3007 2999 3001 3010 3010 3008 3010 3010 3010 3012 3015 3017 3020 3023 3025 3027 3029 3031 3033 3035 3036
2938 2939 2940 2942 2942 2941 2941 2941 2943 2946 2948 2949 2950 2950 2952 2953 2954 2956 2957 2957 2959 2961 2962 2962 2961 2962 2963 2965 2967 2967 2968 2970 2970 2970 2971 2973 2974 2975 2975 2975 2978 2979 2981 2981 2981 2980 2977 2974 2977 2979 2976 2978 2981 2982 2984 2986 2987 2988 2989 2990 2992 2995 2995 2995 2993 2996 3001 2997 2993 3001 3006 3001 3003 3006 3006 3008 3011 3011 3013 3016 3019 3021 3022 3023 3025 3027 3029 3031
2937 2937 2939 2939 2939 2939 2940 2941 2944 2945 2946 2947 2948 2947 2948 2950 2950 2951 2953 2954 2955 2956 2958 2957 2956 2957 2959 2961 2963 2963 2963 2965 2965 2964 2967 2969 2969 2970 2970 2970 2973 2975 2976 2976 2976 2976 2973 2969 2972 2974 2972 2972 2974 2975 2978 2980 2980 2981 2983 2984 2987 2988 2988 2989 2989 2991 2993 2990 2991 2998 2998 2995 2999 3002 3003 3007 3009 3009 3011 3012 3013 3015 3015 3017 3020 3021 3024 3026
2935 2936 2937 2937 2937 2938 2939 2941 2943 2943 2944 2945 2944 2942 2944 2946 2946 2948 2950 2951 2950 2951 2953 2952 2951 2953 2956 2957 2959 2958 2958 2961 2960 2960 2964 2966 2965 2967 2967 2966 2968 2970 2970 2971 2971 2971 2969 2965 2967 2971 2969 2966 2967 2971 2972 2972 2973 2974 2975 2977 2981 2983 2984 2985 2985 2986 2988 2987 2989 2993 2992 2990 2995 2999 3000 3002 3004 3006 3007 3007 3007 3009 3010 3012 3014 3016 3018 3020
2933 2934 2934 2935 2935 2937 2937 2937 2939 2940 2941 2940 2938 2938 2941 2942 2943 2946 2948 2948 2948 2948 2949 2948 2949 2952 2954 2955 2955 2953 2954 2957 2956 2957 2961 2963 2962 2964 2963 2963 2965 2965 2965 2966 2966 2966 2965 2963 2964 2967 2964 2960 2964 2967 2965 2968 2970 2965 2963 2968 2974 2976 2979 2980 2979 2980 2980 2980 2984 2986 2983 2984 2991 2996 2996 2996 2998 2999 3000 3002 3004 3004 3006 3007 3008 3011 3013 3015
2930 2931 2932 2932 2933 2934 2934 2935 2936 2936 2935 2934 2934 2936 2939 2939 2941 2944 2945 2944 2944 2944 2945 2946 2948 2951 2951 2950 2950 2949 2951 2954 2955 2955 2957 2959 2959 2960 2960 2960 2960 2961 2961 2962 2961 2961 2962 2961 2961 2962 2958 2955 2958 2960 2961 2966 2961 2949 2950 2961 2966 2968 2971 2972 2972 2973 2973 2975 2977 2975 2975 2980 2987 2991 2991 2991 2991 2991 2993 2997 2999 2999 3000 3001 3003 3006 3008 3010